Location: B�rgermoos
(47.6500°N, 9.0667°E)
Time: 00:09:48
(UTC+00:00)

Tiros 1 - Pass Details

Date: 09 August 2021
Orbit: 630 x 663 km, 48.4° (Epoch: 19 September)

Event Time Altitude Azimuth Distance (km) Brightness Sun altitude
Rises 14:42:18 0° 232° (SW) 2,986 11.4 39.1°
Reaches altitude 10° 14:44:41 10° 227° (SW) 2,076 10.8 38.8°
Maximum altitude 14:49:19 50° 153° (SSE) 846 8.2 38.0°
Drops below altitude 10° 14:53:56 10° 79° (E) 2,074 9.4 37.3°
Sets 14:56:20 0° 74° (ENE) 2,983 10.1 36.9°
